Wind_Speed
61 40 13 2 5 3 1 10 6 24 55 60 50 38 33 31 31 28 23 25 31 33 31 32 29 27 26 24 25 23 23 20 16 17 21 23 30 32 34 37 39 44 44 44
50 33 6 2 6 13 16 13 4 23 51 55 40 32 36 35 28 24 24 27 30 36 36 30 30 28 27 26 24 21 19 18 10 13 20 23 23 23 30 34 38 36 38 40
43 28 5 15 14 16 16 8 12 22 39 39 32 34 29 32 33 22 22 27 31 33 35 36 31 28 27 25 23 20 19 13 10 10 15 15 16 17 25 35 36 31 29 29
37 23 5 21 22 25 14 15 13 29 41 34 32 32 27 33 31 23 19 20 26 32 35 34 31 29 26 24 20 18 15 12 6 10 5 8 16 19 25 27 25 27 26 27
31 20 10 22 21 21 17 26 20 39 24 28 29 30 31 31 26 22 16 20 26 29 28 29 25 23 24 21 18 17 14 8 7 3 5 10 12 17 24 22 18 22 22 19
26 16 10 20 24 23 18 21 27 40 20 23 26 30 31 25 24 21 21 18 18 19 22 21 21 20 17 17 16 17 12 8 7 7 6 10 14 14 22 19 11 13 11 7
21 11 19 24 29 24 26 26 35 26 19 26 27 30 29 23 19 19 17 20 19 19 18 19 20 16 14 16 19 15 9 8 10 4 6 7 10 15 19 16 11 5 14 15
15 16 23 28 26 21 22 23 26 27 27 27 32 31 28 19 12 14 17 20 19 17 17 17 15 14 16 18 20 14 8 10 7 3 4 6 7 10 16 12 14 2 6 6
11 25 29 28 20 19 25 25 23 20 19 22 27 28 25 18 14 18 20 19 17 12 12 10 11 16 17 21 19 12 8 5 3 4 2 4 7 9 11 11 9 4 9 5
6 30 28 26 27 24 25 25 21 18 13 21 25 25 20 17 15 17 17 19 17 12 10 12 12 17 20 23 18 13 8 6 7 5 3 6 8 9 11 9 5 7 5 9
11 37 34 29 30 25 22 21 17 13 15 23 24 20 18 17 14 11 18 18 13 11 12 14 16 20 26 25 19 15 12 9 6 6 5 4 5 6 5 4 2 8 9 4
4 36 36 32 24 21 19 21 16 13 11 11 14 17 18 18 16 17 17 19 15 11 12 16 20 24 30 27 20 16 13 9 7 6 2 4 2 4 4 2 4 3 2 6
12 34 36 29 25 19 19 17 12 7 4 10 15 17 18 19 19 21 17 19 16 14 11 17 21 25 30 27 20 16 14 13 10 7 5 5 3 1 4 5 6 9 4 2
21 22 38 30 23 25 20 10 6 5 3 6 13 16 16 14 15 13 15 15 17 14 17 17 19 24 32 29 23 16 14 14 13 11 8 8 5 3 4 4 7 6 6 4
26 32 38 34 26 22 16 11 10 9 5 6 10 14 15 9 8 11 14 15 16 15 20 17 19 26 28 28 22 17 16 14 14 13 12 11 5 2 4 6 3 9 4 4
26 37 36 31 27 26 21 16 13 8 9 6 9 11 5 7 5 9 8 9 14 19 19 18 21 24 24 22 18 20 18 20 15 14 13 8 6 4 2 5 4 6 7 5
22 42 38 31 26 22 21 18 14 12 10 7 9 7 3 3 7 6 3 5 14 19 17 17 17 17 16 17 18 25 18 18 17 13 9 8 8 9 6 7 6 4 9 7
22 43 37 30 26 25 23 22 18 14 12 8 15 9 3 7 9 8 3 4 13 17 17 15 12 10 11 15 24 21 18 18 17 12 8 10 10 10 8 8 9 10 9 12
27 41 38 33 26 23 21 24 21 17 15 9 15 9 4 8 8 10 7 3 5 12 15 13 11 9 11 17 17 17 15 14 13 8 7 8 9 9 7 7 10 10 8 9
30 37 35 31 24 20 22 23 20 18 13 13 17 12 7 6 10 7 6 6 4 6 11 12 12 13 10 14 15 13 12 11 11 10 11 10 10 9 8 7 12 12 14 14
27 33 31 28 24 22 19 21 19 14 10 15 20 16 9 6 4 10 8 7 6 4 5 7 6 9 12 14 16 14 14 11 9 12 9 11 12 14 12 10 12 14 14 15
22 32 30 28 23 22 21 20 16 12 9 15 20 20 16 10 7 6 9 11 8 6 3 4 6 8 9 10 14 16 17 16 12 13 12 13 12 12 12 12 12 12 13 16
16 31 33 31 29 27 24 20 16 16 10 9 16 20 21 18 13 9 6 5 5 9 11 8 7 7 8 8 7 10 13 14 12 11 12 13 13 12 12 13 14 15 14 15
6 28 33 36 35 31 27 23 19 17 17 14 13 16 21 23 23 19 15 11 7 5 4 12 12 10 8 7 6 6 6 9 12 13 13 13 12 12 12 12 12 12 13 14
13 11 31 39 37 34 31 27 25 22 20 21 19 17 17 21 25 24 21 18 15 12 10 8 10 14 15 13 12 11 10 11 11 11 11 11 11 11 12 12 13 15 16 17
14 11 9 29 39 38 36 32 30 27 24 22 23 21 18 18 21 24 25 20 17 17 17 16 14 13 12 12 13 14 15 15 15 15 15 15 14 14 14 15 16 17 18 17
14 13 12 5 25 37 39 38 35 32 32 28 25 25 22 19 19 18 23 25 26 26 26 23 23 22 20 17 15 15 16 16 16 16 16 16 16 16 16 16 16 16 17 18
Wind_Direction
347 342 347 92 5 344 95 82 23 175 185 173 169 162 160 163 184 192 198 196 197 205 208 213 219 227 230 237 247 254 267 279 288 272 270 284 296 299 293 294 300 295 304 310
348 344 351 80 74 118 96 56 113 164 181 178 174 171 169 182 180 181 193 199 202 207 213 215 221 229 238 246 250 262 275 288 254 258 284 294 301 299 295 293 292 301 298 317
349 350 36 121 111 97 91 67 127 165 174 160 169 165 167 174 180 188 198 200 199 205 211 217 225 233 239 248 258 266 281 250 253 283 285 298 329 324 314 296 296 296 311 315
350 2 65 120 132 128 86 125 143 169 165 161 157 155 169 183 191 198 196 203 203 207 211 217 225 232 238 246 258 272 243 227 257 284 278 322 342 319 321 303 298 299 316 304
355 13 122 123 141 134 92 123 121 160 146 146 153 159 165 169 174 185 200 196 200 202 210 218 223 227 233 244 254 247 222 242 222 257 313 351 330 332 333 335 323 311 325 306
0 27 135 130 145 142 121 133 139 164 157 158 162 166 165 172 188 199 214 214 198 197 202 211 212 223 233 241 240 219 215 219 210 245 325 335 338 338 336 346 1 343 343 338
8 67 135 131 144 128 128 124 157 161 184 180 174 169 167 172 186 201 199 185 186 195 199 208 215 221 229 230 210 206 199 212 202 247 358 311 321 354 350 359 31 93 70 98
25 123 128 136 124 110 130 139 135 147 165 177 171 169 172 189 187 189 181 180 180 191 201 214 219 217 221 214 204 187 184 205 214 79 21 343 341 356 2 16 26 147 130 143
43 146 146 147 137 131 127 124 125 137 131 155 181 187 188 188 181 177 182 179 181 187 201 202 216 218 224 206 192 172 197 214 149 104 67 7 0 5 356 6 3 85 190 189
94 159 148 153 142 136 128 126 129 146 154 149 152 159 169 170 172 188 188 192 192 202 219 219 220 221 211 199 182 190 189 162 133 100 84 30 17 19 15 16 46 53 120 146
150 162 159 146 133 137 135 121 128 135 148 161 169 169 175 186 190 200 200 197 204 231 252 239 224 218 202 197 188 193 180 167 134 97 76 46 23 7 23 334 68 103 134 153
165 170 152 153 152 147 134 130 126 127 152 170 176 191 206 207 215 227 224 215 218 245 252 234 222 208 200 196 194 187 184 180 180 174 140 42 43 349 323 220 224 146 81 175
191 186 188 178 160 161 158 146 154 159 165 191 194 199 207 208 219 235 227 221 235 246 223 210 204 204 201 196 190 191 198 212 222 228 250 304 347 313 296 254 245 228 215 180
195 183 191 183 179 175 166 159 171 182 143 186 197 195 201 223 231 228 220 234 236 233 204 206 205 202 199 197 197 199 209 223 236 249 272 305 310 236 266 263 243 243 227 199
200 180 177 174 177 194 205 211 222 220 232 232 198 205 214 227 217 234 236 232 228 214 202 209 197 197 201 199 200 213 229 238 247 259 275 284 267 268 283 250 260 160 168 174
203 185 185 189 195 207 210 216 213 224 244 268 209 197 206 203 246 223 246 231 202 196 200 192 184 192 200 202 211 230 238 246 255 271 270 263 230 228 284 231 212 201 202 221
203 190 186 190 193 203 211 213 218 227 244 261 171 156 212 246 190 187 204 184 184 193 190 188 188 197 202 207 221 235 243 257 256 242 247 257 233 229 233 207 212 299 199 219
194 187 192 195 197 201 209 206 216 234 255 261 185 175 163 173 189 198 177 136 175 185 192 188 178 178 195 212 231 242 242 235 228 214 229 252 248 222 240 221 228 227 244 274
181 182 188 193 196 200 202 209 221 242 248 237 184 177 155 181 197 211 201 157 159 190 194 195 198 199 199 222 231 231 223 215 210 208 232 234 225 218 252 246 226 214 221 185
177 181 184 188 194 202 206 215 226 243 250 216 192 175 160 161 196 193 186 183 180 189 204 220 229 231 224 226 225 210 208 217 231 235 245 237 219 218 240 236 225 224 217 232
180 181 186 194 201 202 206 214 224 230 236 209 200 190 174 159 156 209 205 183 187 191 210 223 237 237 230 224 225 222 220 231 250 244 257 215 224 238 253 233 230 237 242 245
188 190 196 201 203 200 207 217 218 220 216 212 212 205 202 187 172 182 210 221 228 231 222 233 236 234 227 218 217 226 230 239 252 254 242 237 236 238 238 234 241 243 250 256
205 199 200 204 212 211 217 223 220 224 231 223 219 224 221 220 213 208 190 193 214 230 231 229 230 213 210 202 214 226 228 231 238 236 229 226 224 225 242 252 248 254 251 246
226 213 212 211 214 218 223 228 223 228 237 240 231 231 229 229 231 232 235 239 244 244 234 223 226 231 233 234 235 235 231 231 232 236 234 233 232 235 240 242 236 242 248 254
12 238 224 222 222 223 225 225 230 238 237 240 240 242 239 236 236 236 238 241 240 238 236 232 228 229 234 236 237 237 241 247 251 250 250 251 252 256 260 259 259 257 261 268
350 9 264 230 229 225 226 228 230 230 232 238 241 244 251 246 240 239 240 241 242 239 234 232 231 234 234 232 232 234 239 243 245 246 247 248 250 255 261 265 267 268 270 273
314 340 1 302 232 228 230 230 231 233 233 235 240 242 247 252 251 247 240 242 243 236 234 233 232 234 236 235 236 239 241 244 245 246 251 254 253 253 255 258 262 266 268 270
Height
5486 5475 5471 5471 5469 5467 5466 5465 5466 5466 5472 5487 5502 5513 5525 5537 5548 5558 5564 5571 5578 5585 5593 5599 5604 5608 5612 5617 5619 5621 5622 5625 5626 5624 5621 5619 5617 5613 5606 5599 5594 5580 5575 5570
5484 5474 5472 5471 5471 5468 5468 5469 5469 5471 5482 5493 5504 5515 5526 5537 5548 5556 5562 5568 5575 5582 5589 5596 5600 5603 5608 5610 5613 5615 5617 5619 5619 5618 5617 5614 5612 5607 5599 5590 5582 5578 5566 5559
5483 5475 5473 5474 5473 5473 5472 5477 5478 5481 5491 5502 5511 5519 5529 5539 5548 5555 5560 5565 5571 5578 5585 5592 5596 5600 5603 5605 5607 5610 5611 5613 5615 5615 5612 5608 5604 5598 5592 5582 5574 5569 5561 5555
5484 5478 5477 5476 5477 5478 5478 5480 5483 5492 5499 5508 5514 5522 5531 5540 5548 5555 5560 5564 5569 5575 5581 5587 5592 5596 5600 5602 5604 5606 5608 5609 5609 5608 5607 5604 5598 5594 5587 5577 5571 5564 5558 5550
5486 5481 5482 5480 5480 5483 5486 5487 5491 5497 5503 5511 5518 5525 5534 5542 5548 5555 5559 5562 5566 5571 5577 5583 5587 5593 5596 5598 5600 5602 5605 5604 5604 5604 5602 5598 5596 5590 5582 5575 5568 5563 5556 5549
5489 5485 5485 5485 5484 5487 5490 5492 5496 5504 5511 5516 5522 5529 5537 5545 5550 5554 5558 5563 5568 5571 5575 5579 5584 5588 5591 5594 5598 5599 5600 5600 5601 5602 5597 5594 5592 5587 5580 5574 5568 5565 5558 5551
5493 5489 5490 5491 5492 5492 5497 5501 5505 5511 5515 5519 5526 5534 5540 5546 5550 5553 5557 5562 5565 5569 5573 5577 5581 5586 5589 5592 5594 5596 5596 5597 5597 5597 5594 5593 5590 5585 5578 5574 5571 5568 5564 5558
5498 5495 5495 5498 5498 5500 5504 5509 5514 5517 5520 5525 5531 5537 5542 5546 5550 5553 5558 5561 5564 5567 5572 5576 5579 5584 5587 5588 5590 5592 5593 5595 5595 5593 5592 5592 5588 5584 5580 5576 5574 5571 5569 5566
5501 5501 5502 5503 5505 5508 5510 5513 5516 5520 5524 5528 5533 5539 5544 5548 5551 5554 5557 5560 5563 5566 5570 5574 5578 5581 5584 5586 5588 5589 5591 5591 5592 5591 5592 5590 5587 5584 5580 5578 5576 5572 5571 5569
5504 5506 5507 5509 5512 5513 5515 5518 5520 5524 5527 5531 5536 5540 5544 5548 5551 5554 5556 5558 5561 5564 5567 5571 5575 5577 5580 5583 5584 5587 5588 5589 5590 5591 5591 5590 5587 5584 5582 5580 5580 5574 5574 5573
5505 5507 5511 5513 5514 5518 5520 5520 5523 5528 5531 5534 5538 5541 5545 5548 5551 5553 5555 5558 5560 5562 5564 5567 5570 5573 5576 5580 5582 5584 5586 5587 5589 5590 5591 5590 5588 5586 5585 5583 5581 5579 5578 5576
5506 5509 5510 5514 5518 5520 5524 5526 5529 5531 5534 5537 5539 5541 5544 5547 5549 5551 5553 5556 5557 5559 5561 5563 5566 5569 5573 5577 5579 5581 5584 5587 5589 5591 5591 5589 5588 5586 5585 5584 5583 5582 5581 5579
5503 5506 5509 5514 5517 5522 5525 5528 5531 5533 5534 5536 5538 5540 5542 5545 5547 5549 5550 5552 5554 5555 5557 5558 5561 5565 5570 5574 5576 5578 5581 5584 5586 5588 5589 5588 5587 5586 5585 5584 5583 5583 5583 5583
5500 5503 5507 5512 5517 5521 5525 5528 5531 5533 5534 5535 5537 5538 5541 5543 5544 5546 5548 5550 5551 5552 5553 5555 5559 5563 5566 5571 5574 5577 5580 5582 5584 5585 5586 5586 5585 5583 5583 5582 5582 5582 5583 5583
5495 5499 5505 5510 5515 5520 5524 5527 5530 5532 5535 5535 5536 5537 5539 5540 5542 5543 5545 5546 5548 5548 5551 5553 5556 5559 5564 5567 5571 5575 5577 5579 5581 5582 5582 5583 5583 5581 5581 5581 5581 5582 5582 5583
5488 5494 5501 5507 5514 5518 5522 5526 5529 5531 5532 5533 5534 5535 5537 5539 5539 5540 5541 5542 5544 5546 5548 5551 5554 5557 5562 5565 5569 5571 5573 5575 5577 5579 5579 5579 5580 5579 5580 5580 5580 5581 5582 5583
5481 5489 5498 5505 5511 5516 5521 5526 5530 5530 5532 5532 5533 5534 5536 5536 5537 5539 5539 5539 5542 5545 5548 5551 5554 5556 5558 5563 5566 5565 5569 5571 5573 5574 5575 5576 5577 5577 5579 5579 5580 5579 5581 5582
5476 5485 5495 5502 5509 5515 5520 5524 5526 5529 5530 5531 5532 5534 5535 5535 5537 5538 5539 5539 5541 5544 5547 5550 5551 5554 5557 5559 5559 5563 5565 5566 5568 5570 5571 5573 5573 5574 5575 5576 5578 5579 5579 5579
5478 5486 5495 5502 5508 5514 5519 5522 5525 5527 5529 5529 5530 5532 5534 5535 5536 5537 5539 5540 5541 5543 5546 5549 5551 5553 5554 5556 5558 5560 5561 5564 5567 5567 5569 5571 5571 5573 5573 5574 5575 5576 5577 5578
5483 5489 5496 5503 5509 5513 5517 5520 5523 5524 5526 5527 5528 5531 5532 5534 5534 5537 5538 5539 5541 5543 5546 5547 5549 5551 5553 5554 5556 5558 5560 5562 5563 5565 5567 5568 5569 5570 5571 5572 5573 5574 5576 5577
5488 5493 5499 5503 5507 5511 5515 5518 5521 5523 5524 5524 5526 5529 5531 5533 5534 5534 5537 5538 5540 5542 5544 5545 5546 5548 5549 5551 5553 5555 5557 5558 5560 5562 5562 5564 5565 5566 5568 5569 5570 5571 5572 5573
5491 5494 5498 5502 5506 5509 5513 5516 5520 5522 5522 5522 5524 5527 5529 5532 5532 5534 5535 5537 5539 5541 5543 5544 5545 5546 5546 5547 5549 5551 5553 5556 5557 5558 5559 5560 5561 5563 5564 5566 5567 5568 5568 5569
5491 5493 5496 5499 5503 5507 5510 5514 5518 5519 5519 5521 5522 5524 5526 5529 5531 5532 5534 5535 5537 5539 5540 5542 5544 5545 5545 5546 5547 5548 5550 5552 5553 5555 5556 5557 5558 5559 5560 5561 5563 5564 5565 5566
5490 5492 5493 5495 5498 5503 5507 5510 5513 5515 5516 5518 5519 5520 5522 5524 5527 5530 5532 5535 5536 5537 5538 5540 5542 5543 5544 5544 5545 5547 5548 5549 5550 5551 5552 5554 5555 5556 5557 5558 5559 5560 5561 5561
5488 5487 5489 5490 5494 5498 5502 5505 5508 5510 5512 5514 5515 5516 5518 5520 5523 5525 5528 5531 5533 5535 5536 5537 5538 5540 5541 5542 5544 5545 5546 5547 5548 5549 5550 5550 5551 5552 5553 5554 5555 5555 5556 5556
5487 5485 5483 5485 5488 5491 5495 5499 5501 5504 5506 5508 5510 5512 5513 5515 5516 5520 5523 5526 5528 5530 5531 5533 5534 5535 5537 5538 5539 5540 5542 5543 5544 5545 5546 5547 5547 5548 5549 5549 5550 5550 5551 5551
5484 5483 5481 5479 5479 5482 5486 5490 5494 5497 5500 5502 5504 5506 5509 5510 5511 5514 5516 5520 5520 5522 5524 5526 5528 5530 5532 5533 5535 5536 5537 5538 5539 5540 5541 5542 5543 5543 5544 5544 5545 5545 5545 5546